Location: Carri�res
(48.9069°N, 2.1792°E)
Time: 22:25:35
(UTC+00:00)

SJ-11-01 - Pass Details

Date: 20 May 2021
Orbit: 684 x 701 km, 98.0° (Epoch: 18 June)

Event Time Altitude Azimuth Distance (km) Brightness Sun altitude
Rises 20:07:57 0° 224° (SW) 3,054 7.7 -5.4°
Reaches altitude 10° 20:12:38 10° 267° (W) 2,142 7.6 -6.0°
Maximum altitude 20:13:15 10° 275° (W) 2,127 7.8 -6.1°
Drops below altitude 10° 20:13:52 10° 283° (WNW) 2,143 8.0 -6.2°
Sets 20:18:34 0° 326° (NW) 3,064 9.5 -6.7°
